Location: Kearney
(40.6990°N, 99.0810°W)
Time: 07:42:52
(UTC-05:00)

Cosmos 1980 Rocket - Pass Details

Date: 18 December 2017
Orbit: 831 x 848 km, 71.0° (Epoch: 23 April)

Event Time Altitude Azimuth Distance (km) Brightness Sun altitude
Rises 17:36:45 0° 163° (SSE) 3,385 5.5 -5.1°
Reaches altitude 10° 17:39:44 10° 147° (SSE) 2,458 4.6 -5.6°
Maximum altitude 17:43:51 21° 100° (E) 1,811 3.5 -6.3°
Drops below altitude 10° 17:47:58 10° 53° (NE) 2,476 4.0 -7.0°
Enters shadow 17:48:48 - 48° (NE) 2,716 4.2 -7.2°
